Home   Weather   Sumqayit   Past weeks

Flag for Azerbaijan Past Weather in Sumqayit, Azerbaijan — Yesterday and Last 2 Weeks

Now
59 °F

Sunny.


Feels Like: 57 °F
Forecast: 55 / 62 °F
Wind: 13 mph from Southeast

Location: Baku / Bine Airport

Current Time: Apr 23, 2017 at 10:05:10 am

Latest Report: Apr 23, 2017 at 9:30 am


Visibility: 10 mi

Pressure: 30.12 "Hg

Humidity: 51%

Dew Point: 41 °F

Location of SumqayitLocation

Past Weather in Sumqayit — Graph

°F

Sumqayit Temperature Yesterday

Maximum temperature yesterday: 57 °F (at 6:00 am)
Minimum temperature yesterday: 50 °F (at 6:30 pm)
Average temperature yesterday: 54 °F

High & Low Weather Summary for the Past Weeks

 TemperatureHumidityPressure
High72 °F (Apr 14, 2:00 pm)94% (Apr 9, 4:30 am)30.30 "Hg (Apr 9, 4:30 am)
Low45 °F (Apr 21, 12:00 am)43% (Apr 17, 11:00 am)29.56 "Hg (Apr 14, 1:30 pm)
Average55 °F76%29.99 "Hg
* Reported Apr 8 9:00 am — Apr 23 9:00 am, Sumqayit, Weather by CustomWeather, © 2017

Note: Actual official high and low records may vary slightly from our data, if they occured in-between our weather recording intervals... More about our weather records

Advertising

Sumqayit Weather History for the Previous 24 Hours

Scroll right to see more
 ConditionsComfort  
Time TempWeatherWind HumidityBarometerVisibility
9:00 am
Sun, Apr 23
57 °FSunny.10 mph59%30.15 "Hg10 mi
8:30 am55 °FSunny.10 mph63%30.15 "Hg10 mi
8:00 am54 °FCool.8 mph67%30.18 "HgN/A
7:30 am50 °FScattered clouds.3 mph71%30.18 "HgN/A
7:00 am46 °FSunny.5 mph76%30.18 "Hg10 mi
6:30 am45 °FSunny.6 mph81%30.18 "Hg10 mi
6:00 am45 °FSunny.5 mph81%30.18 "Hg10 mi
5:30 am45 °FClear.2 mph81%30.18 "Hg10 mi
5:00 am45 °FClear.2 mph81%30.18 "Hg10 mi
4:30 am46 °FClear.No wind82%30.18 "Hg10 mi
4:00 am46 °FClear.2 mph82%30.18 "Hg10 mi
3:30 am45 °FClear.2 mph81%30.18 "Hg10 mi
3:00 am46 °FClear.No wind82%30.18 "Hg10 mi
2:30 am46 °FClear.2 mph82%30.18 "Hg10 mi
2:00 am46 °FClear.2 mph87%30.21 "Hg10 mi
1:30 am48 °FClear.5 mph76%30.21 "Hg10 mi
1:00 am48 °FClear.6 mph76%30.21 "Hg10 mi
12:30 am48 °FClear.6 mph71%30.21 "Hg10 mi
12:00 am48 °FClear.8 mph71%30.21 "Hg10 mi
11:30 pm
Sat, Apr 22
50 °FClear.9 mph67%30.21 "Hg10 mi
10:30 pm50 °FClear.9 mph71%30.18 "Hg10 mi
10:00 pm50 °FClear.9 mph67%30.18 "Hg10 mi
9:30 pm50 °FClear.12 mph67%30.18 "Hg10 mi
9:00 pm50 °FClear.14 mph67%30.18 "Hg10 mi
8:30 pm50 °FClear.17 mph71%30.15 "Hg10 mi
8:00 pm50 °FClear.18 mph71%30.15 "Hg10 mi
7:30 pm50 °FClear.23 mph71%30.12 "Hg10 mi
7:00 pm50 °FSunny.23 mph71%30.12 "Hg10 mi
6:30 pm50 °FSunny.26 mph71%30.09 "Hg10 mi
6:00 pm52 °FSunny.25 mph67%30.09 "Hg10 mi
5:30 pm52 °FSunny.30 mph67%30.07 "Hg10 mi
5:00 pm54 °FSunny.30 mph67%30.07 "Hg10 mi
4:30 pm54 °FSunny.29 mph67%30.04 "Hg10 mi
4:00 pm54 °FSunny.29 mph67%30.04 "Hg10 mi
3:30 pm54 °FSunny.30 mph67%30.01 "Hg10 mi
3:00 pm55 °FSunny.30 mph63%30.01 "Hg10 mi
2:30 pm55 °FSunny.28 mph63%30.01 "Hg10 mi
2:00 pm55 °FSunny.26 mph63%29.98 "Hg10 mi
1:30 pm55 °FSunny.29 mph63%29.98 "Hg10 mi
1:00 pm55 °FPassing clouds.28 mph67%29.98 "HgN/A
12:30 pm55 °FScattered clouds.28 mph67%29.98 "HgN/A
12:00 pm55 °FScattered clouds.26 mph72%29.98 "HgN/A
11:30 am55 °FPartly sunny.28 mph72%29.98 "HgN/A
11:00 am55 °FPartly sunny.28 mph77%29.98 "HgN/A
10:30 am54 °FMostly cloudy.23 mph82%29.98 "HgN/A
10:00 am54 °FMostly cloudy.25 mph82%29.98 "HgN/A
Weather by CustomWeather, © 2017

See weather overviewHow to use our weather pages